Hourly Data Report for October 19, 2020

SHEARWATER RCS
NOVA SCOTIA
Current Station Operator: ECCC - MSC

44°37'47.000" N
63°30'48.000" W
24.00 m
8205092
71264
AAW

Download Data

Hourly Data (October 2020)
Hourly Data Report for October 19, 2020
TIME Temp Definition
°C
Dew Point Definition
°C
Rel Hum Definition
%
Wind Dir Definition
10's deg

Wind Spd Definition
km/h
Visibility Definition
km
Stn Press Definition
kPa
Hmdx Definition


Wind Chill Definition


Weather Definition


00:00 8.2 6.3 88 4 8   102.87     LegendNANA
01:00 8.5 6.8 89 3 7   102.86     LegendNANA
02:00 8.6 7.0 90 5 11   102.79     LegendNANA
03:00 8.7 7.3 91 4 10   102.73     LegendNANA
04:00 9.0 7.8 92 5 10   102.71     LegendNANA
05:00 9.3 8.1 92 1 5   102.74     LegendNANA
06:00 9.6 8.6 93 36 5   102.75     LegendNANA
07:00 9.6 8.8 95 4 9   102.74     LegendNANA
08:00 10.1 9.3 94 3 6   102.75     LegendNANA
09:00 11.1 9.8 92 3 4   102.74     LegendNANA
10:00 12.6 10.9 89 3 6   102.72     LegendNANA
11:00 13.0 11.7 91 7 9   102.68     LegendNANA
12:00 14.1 12.1 88 9 5   102.62     LegendNANA
13:00 13.4 11.9 90 25 5   102.66     LegendNANA
14:00 13.9 12.3 90 26 5   102.61     LegendNANA
15:00 14.2 12.4 89 28 3   102.61     LegendNANA
16:00 13.2 11.9 92 16 6   102.58     LegendNANA
17:00 13.2 12.2 94 11 4   102.56     LegendNANA
18:00 13.2 12.4 95 11 4   102.58     LegendNANA
19:00 13.2 12.6 96 10 4   102.56     LegendNANA
20:00 12.9 12.6 98 9 6   102.51     LegendNANA
21:00 13.3 13.0 98 10 9   102.51     LegendNANA
22:00 13.0 12.7 98 10 6   102.50     LegendNANA
23:00 13.3 13.1 99 12 4   102.48     LegendNANA

Notes on Data Quality.

Legend

  • E = Estimated
  • M = Missing
  • NA = Not Available*
  • [empty] = Indicates an unobserved value
Date modified: